User: anonymous   Login
Location: Newark
(55.1225°N, 33.2808°E)
Time: 00:17:22
(UTC+00:00)
Language:

ISS - Orbit

View from above orbital plane
View from above orbital plane
View from above satellite
View from above satellite

Ground track
Ground track

The orbit data is extracted from the following two-line orbital elements,

1 25544U 98067A   19288.90159444  .00000056  00000-0  89835-5 0  9993
2 25544  51.6424 122.6831 0007161 151.6131 348.1164 15.50197274193988
Epoch (UTC): 15 October 2019 21:38:17
Eccentricity: 0.0007161
inclination: 51.6424°
perigee height: 411 km
apogee height: 421 km
right ascension of ascending node: 122.6831°
argument of perigee: 151.6131°
revolutions per day: 15.50197274
mean anomaly at epoch: 348.1164°
orbit number at epoch: 19398

The dashed part of the orbit path shows where the satellite is in the earth's shadow,  

DLR